Time,TemperatureF,DewpointF,PressureIn,WindDirection,WindDirectionDegrees,WindSpeedMPH,WindSpeedGustMPH,Humidity,HourlyPrecipIn,Conditions,Clouds,dailyrainin,SoftwareType,DateUTC
2013-03-09 00:00:00,38.7,32.7,30.00,North,6,16.0,37.0,79,0.00,,,0.45,Wunderground v.1.15,2013-03-09 05:00:00,
2013-03-09 00:10:00,38.7,33.4,30.00,NNW,334,15.0,15.0,81,0.00,,,0.00,Wunderground v.1.15,2013-03-09 05:10:00,
2013-03-09 00:20:00,38.7,33.4,30.01,NNW,346,18.0,37.0,81,0.00,,,0.00,Wunderground v.1.15,2013-03-09 05:20:00,
2013-03-09 00:30:00,38.6,33.0,30.01,ENE,76,16.0,16.0,80,0.00,,,0.00,Wunderground v.1.15,2013-03-09 05:30:00,
2013-03-09 00:40:00,38.4,32.8,30.01,North,1,17.0,17.0,80,0.00,,,0.00,Wunderground v.1.15,2013-03-09 05:40:00,
2013-03-09 00:50:00,38.3,33.3,30.01,NNW,347,14.0,14.0,82,0.00,,,0.00,Wunderground v.1.15,2013-03-09 05:50:00,
2013-03-09 01:00:00,38.1,33.1,30.01,North,1,15.0,37.0,82,0.00,,,0.00,Wunderground v.1.15,2013-03-09 06:00:00,
2013-03-09 01:10:00,38.0,33.0,30.01,NW,314,15.0,15.0,82,0.00,,,0.00,Wunderground v.1.15,2013-03-09 06:10:00,
2013-03-09 01:20:00,38.0,33.0,30.01,NNW,344,15.0,37.0,82,0.00,,,0.00,Wunderground v.1.15,2013-03-09 06:20:00,
2013-03-09 01:30:00,37.8,32.8,30.01,North,11,16.0,16.0,82,0.00,,,0.00,Wunderground v.1.15,2013-03-09 06:30:00,
2013-03-09 01:40:00,37.6,32.3,30.01,NNW,342,17.0,37.0,81,0.00,,,0.00,Wunderground v.1.15,2013-03-09 06:40:00,
2013-03-09 01:50:00,37.6,32.6,30.01,NNW,346,17.0,37.0,82,0.00,,,0.00,Wunderground v.1.15,2013-03-09 06:50:00,
2013-03-09 02:00:00,37.5,32.8,30.01,NNE,30,14.0,37.0,83,0.00,,,0.00,Wunderground v.1.15,2013-03-09 07:00:00,
2013-03-09 02:10:00,37.3,32.6,30.01,NNE,18,14.0,37.0,83,0.00,,,0.00,Wunderground v.1.15,2013-03-09 07:10:00,
2013-03-09 02:20:00,37.2,32.2,30.01,North,11,18.0,37.0,82,0.00,,,0.00,Wunderground v.1.15,2013-03-09 07:20:00,
2013-03-09 02:30:00,37.1,32.4,30.01,NNE,25,15.0,15.0,83,0.00,,,0.00,Wunderground v.1.15,2013-03-09 07:30:00,
2013-03-09 02:40:00,36.9,31.9,30.01,SE,127,14.0,37.0,82,0.00,,,0.00,Wunderground v.1.15,2013-03-09 07:40:00,
2013-03-09 02:50:00,36.9,32.2,30.01,North,352,15.0,37.0,83,0.00,,,0.00,Wunderground v.1.15,2013-03-09 07:50:00,
2013-03-09 03:00:00,36.9,32.5,30.01,NW,323,14.0,37.0,84,0.00,,,0.00,Wunderground v.1.15,2013-03-09 08:00:00,
2013-03-09 03:10:00,36.9,32.2,30.01,NNW,333,15.0,15.0,83,0.00,,,0.00,Wunderground v.1.15,2013-03-09 08:10:00,
2013-03-09 03:20:00,36.8,32.4,30.01,North,354,14.0,37.0,84,0.00,,,0.00,Wunderground v.1.15,2013-03-09 08:20:00,
2013-03-09 03:30:00,36.7,32.3,30.01,NNE,20,15.0,15.0,84,0.00,,,0.00,Wunderground v.1.15,2013-03-09 08:30:00,
2013-03-09 03:40:00,36.7,32.3,30.02,NNE,23,15.0,15.0,84,0.00,,,0.00,Wunderground v.1.15,2013-03-09 08:40:00,
2013-03-09 03:50:00,36.7,32.3,30.02,NNE,15,14.0,37.0,84,0.00,,,0.00,Wunderground v.1.15,2013-03-09 08:50:00,
2013-03-09 04:00:00,36.6,32.2,30.03,NNE,12,14.0,37.0,84,0.00,,,0.00,Wunderground v.1.15,2013-03-09 09:00:00,
2013-03-09 04:10:00,36.7,32.3,30.03,North,9,16.0,16.0,84,0.00,,,0.00,Wunderground v.1.15,2013-03-09 09:10:00,
2013-03-09 04:20:00,36.7,32.3,30.03,North,354,13.0,37.0,84,0.00,,,0.00,Wunderground v.1.15,2013-03-09 09:20:00,
2013-03-09 04:30:00,36.6,32.2,30.04,North,356,15.0,37.0,84,0.00,,,0.00,Wunderground v.1.15,2013-03-09 09:30:00,
2013-03-09 04:40:00,36.6,32.2,30.04,NNW,347,14.0,37.0,84,0.00,,,0.00,Wunderground v.1.15,2013-03-09 09:40:00,
2013-03-09 04:50:00,36.5,32.1,30.05,North,360,13.0,37.0,84,0.00,,,0.00,Wunderground v.1.15,2013-03-09 09:50:00,
2013-03-09 05:00:00,36.5,32.1,30.05,NE,37,15.0,37.0,84,0.00,,,0.00,Wunderground v.1.15,2013-03-09 10:00:00,
2013-03-09 05:10:00,36.5,32.1,30.05,North,5,16.0,37.0,84,0.00,,,0.00,Wunderground v.1.15,2013-03-09 10:10:00,
2013-03-09 05:20:00,36.4,31.7,30.06,ENE,58,16.0,16.0,83,0.00,,,0.00,Wunderground v.1.15,2013-03-09 10:20:00,
2013-03-09 05:30:00,36.4,32.0,30.05,NNE,15,15.0,15.0,84,0.00,,,0.00,Wunderground v.1.15,2013-03-09 10:30:00,
2013-03-09 05:40:00,36.3,32.2,30.06,North,356,15.0,15.0,85,0.00,,,0.00,Wunderground v.1.15,2013-03-09 10:40:00,
2013-03-09 05:50:00,36.1,31.7,30.07,NW,324,14.0,37.0,84,0.00,,,0.00,Wunderground v.1.15,2013-03-09 10:50:00,
2013-03-09 06:00:00,36.1,31.4,30.07,NNE,15,17.0,17.0,83,0.00,,,0.00,Wunderground v.1.15,2013-03-09 11:00:00,
2013-03-09 06:10:00,36.1,31.7,30.08,ESE,110,16.0,16.0,84,0.00,,,0.00,Wunderground v.1.15,2013-03-09 11:10:00,
2013-03-09 06:20:00,36.1,31.7,30.07,NNE,22,16.0,16.0,84,0.00,,,0.00,Wunderground v.1.15,2013-03-09 11:20:00,
2013-03-09 06:30:00,36.0,31.6,30.08,NNE,20,14.0,14.0,84,0.00,,,0.00,Wunderground v.1.15,2013-03-09 11:30:00,
2013-03-09 06:40:00,36.1,31.7,30.08,NE,39,16.0,37.0,84,0.00,,,0.00,Wunderground v.1.15,2013-03-09 11:40:00,
2013-03-09 06:50:00,36.2,32.1,30.08,North,359,14.0,37.0,85,0.00,,,0.00,Wunderground v.1.15,2013-03-09 11:50:00,
2013-03-09 07:00:00,36.2,32.1,30.09,ENE,67,13.0,13.0,85,0.00,,,0.00,Wunderground v.1.15,2013-03-09 12:00:00,
2013-03-09 07:10:00,36.2,32.1,30.10,ENE,58,14.0,37.0,85,0.00,,,0.00,Wunderground v.1.15,2013-03-09 12:10:00,
2013-03-09 07:20:00,36.3,32.2,30.11,NNE,23,15.0,37.0,85,0.00,,,0.00,Wunderground v.1.15,2013-03-09 12:20:00,
2013-03-09 07:30:00,36.3,31.9,30.11,NNW,328,14.0,37.0,84,0.00,,,0.00,Wunderground v.1.15,2013-03-09 12:30:00,
2013-03-09 07:40:00,36.4,32.0,30.11,NW,315,14.0,37.0,84,0.00,,,0.00,Wunderground v.1.15,2013-03-09 12:40:00,
2013-03-09 07:50:00,36.3,31.9,30.11,SSE,165,14.0,14.0,84,0.00,,,0.00,Wunderground v.1.15,2013-03-09 12:50:00,
2013-03-09 08:00:00,36.3,31.9,30.12,NNE,15,14.0,37.0,84,0.00,,,0.00,Wunderground v.1.15,2013-03-09 13:00:00,
2013-03-09 08:10:00,36.4,32.0,30.13,North,358,14.0,14.0,84,0.00,,,0.00,Wunderground v.1.15,2013-03-09 13:10:00,
2013-03-09 08:20:00,36.4,32.0,30.13,North,1,13.0,37.0,84,0.00,,,0.00,Wunderground v.1.15,2013-03-09 13:20:00,
2013-03-09 08:30:00,36.5,32.1,30.14,NNE,25,15.0,15.0,84,0.00,,,0.00,Wunderground v.1.15,2013-03-09 13:30:00,
2013-03-09 08:40:00,36.5,32.1,30.14,NW,316,14.0,14.0,84,0.00,,,0.00,Wunderground v.1.15,2013-03-09 13:40:00,
2013-03-09 08:50:00,36.6,32.2,30.14,NW,322,15.0,15.0,84,0.00,,,0.00,Wunderground v.1.15,2013-03-09 13:50:00,
2013-03-09 09:00:00,36.8,32.1,30.14,North,5,14.0,14.0,83,0.00,,,0.00,Wunderground v.1.15,2013-03-09 14:00:00,
2013-03-09 09:10:00,36.7,32.0,30.14,NNW,340,14.0,37.0,83,0.00,,,0.00,Wunderground v.1.15,2013-03-09 14:10:00,
2013-03-09 09:20:00,36.9,32.5,30.14,North,352,15.0,15.0,84,0.00,,,0.00,Wunderground v.1.15,2013-03-09 14:20:00,
2013-03-09 09:30:00,37.3,32.6,30.14,NNE,22,13.0,37.0,83,0.00,,,0.00,Wunderground v.1.15,2013-03-09 14:30:00,
2013-03-09 09:40:00,37.3,32.3,30.14,NNE,27,16.0,37.0,82,0.00,,,0.00,Wunderground v.1.15,2013-03-09 14:40:00,
2013-03-09 09:50:00,37.4,32.4,30.14,NNE,29,14.0,37.0,82,0.00,,,0.00,Wunderground v.1.15,2013-03-09 14:50:00,
2013-03-09 10:00:00,37.3,32.6,30.14,North,5,15.0,37.0,83,0.00,,,0.00,Wunderground v.1.15,2013-03-09 15:00:00,
2013-03-09 10:10:00,37.5,32.8,30.14,NE,44,13.0,13.0,83,0.00,,,0.00,Wunderground v.1.15,2013-03-09 15:10:00,
2013-03-09 10:20:00,37.6,32.9,30.15,NW,317,11.0,37.0,83,0.00,,,0.00,Wunderground v.1.15,2013-03-09 15:20:00,
2013-03-09 10:30:00,37.3,32.3,30.15,NE,56,16.0,16.0,82,0.00,,,0.00,Wunderground v.1.15,2013-03-09 15:30:00,
2013-03-09 10:40:00,37.5,32.8,30.15,North,7,13.0,13.0,83,0.00,,,0.00,Wunderground v.1.15,2013-03-09 15:40:00,
2013-03-09 10:50:00,37.5,32.8,30.15,East,98,14.0,14.0,83,0.00,,,0.00,Wunderground v.1.15,2013-03-09 15:50:00,
2013-03-09 11:00:00,37.5,32.5,30.15,NNE,20,15.0,15.0,82,0.00,,,0.00,Wunderground v.1.15,2013-03-09 16:00:00,
2013-03-09 11:10:00,37.7,32.7,30.15,West,281,14.0,37.0,82,0.00,,,0.00,Wunderground v.1.15,2013-03-09 16:10:00,
2013-03-09 11:20:00,37.7,32.7,30.16,NNE,25,15.0,15.0,82,0.00,,,0.00,Wunderground v.1.15,2013-03-09 16:20:00,
2013-03-09 11:30:00,37.8,33.1,30.16,NW,318,14.0,14.0,83,0.00,,,0.00,Wunderground v.1.15,2013-03-09 16:30:00,
2013-03-09 11:40:00,37.8,33.1,30.16,NNE,23,12.0,37.0,83,0.00,,,0.00,Wunderground v.1.15,2013-03-09 16:40:00,
2013-03-09 11:50:00,37.8,33.1,30.17,NNE,15,12.0,37.0,83,0.00,,,0.00,Wunderground v.1.15,2013-03-09 16:50:00,
2013-03-09 12:00:00,37.6,32.6,30.17,NNW,345,15.0,37.0,82,0.00,,,0.00,Wunderground v.1.15,2013-03-09 17:00:00,
2013-03-09 12:10:00,37.4,33.0,30.17,NNW,340,15.0,37.0,84,0.00,,,0.00,Wunderground v.1.15,2013-03-09 17:10:00,
2013-03-09 12:20:00,37.5,33.1,30.17,North,3,13.0,37.0,84,0.00,,,0.00,Wunderground v.1.15,2013-03-09 17:20:00,
2013-03-09 12:30:00,37.8,33.1,30.17,North,5,12.0,12.0,83,0.00,,,0.00,Wunderground v.1.15,2013-03-09 17:30:00,
2013-03-09 12:40:00,37.7,33.3,30.17,North,6,12.0,12.0,84,0.00,,,0.00,Wunderground v.1.15,2013-03-09 17:40:00,
2013-03-09 12:50:00,37.7,33.3,30.17,North,1,12.0,37.0,84,0.00,,,0.00,Wunderground v.1.15,2013-03-09 17:50:00,
2013-03-09 13:00:00,37.5,33.1,30.17,NNW,346,13.0,13.0,84,0.00,,,0.00,Wunderground v.1.15,2013-03-09 18:00:00,
2013-03-09 13:10:00,37.3,32.9,30.18,NNE,33,14.0,37.0,84,0.00,,,0.00,Wunderground v.1.15,2013-03-09 18:10:00,
2013-03-09 13:20:00,37.5,33.1,30.18,North,5,13.0,37.0,84,0.00,,,0.00,Wunderground v.1.15,2013-03-09 18:20:00,
2013-03-09 13:30:00,37.4,32.7,30.18,NNE,18,11.0,37.0,83,0.00,,,0.00,Wunderground v.1.15,2013-03-09 18:30:00,
2013-03-09 13:40:00,37.2,32.8,30.18,NNE,22,13.0,37.0,84,0.00,,,0.00,Wunderground v.1.15,2013-03-09 18:40:00,
2013-03-09 13:50:00,37.1,32.7,30.18,NE,39,12.0,12.0,84,0.00,,,0.00,Wunderground v.1.15,2013-03-09 18:50:00,
2013-03-09 14:00:00,37.2,32.8,30.18,North,11,12.0,37.0,84,0.00,,,0.00,Wunderground v.1.15,2013-03-09 19:00:00,
2013-03-09 14:10:00,37.2,33.1,30.18,NNW,348,11.0,37.0,85,0.00,,,0.00,Wunderground v.1.15,2013-03-09 19:10:00,
2013-03-09 14:20:00,37.2,33.1,30.18,NNE,16,13.0,13.0,85,0.00,,,0.00,Wunderground v.1.15,2013-03-09 19:20:00,
2013-03-09 14:30:00,37.2,32.5,30.18,North,354,13.0,13.0,83,0.00,,,0.00,Wunderground v.1.15,2013-03-09 19:30:00,
2013-03-09 14:40:00,37.1,32.7,30.19,ENE,61,12.0,37.0,84,0.00,,,0.00,Wunderground v.1.15,2013-03-09 19:40:00,
2013-03-09 14:50:00,37.1,32.7,30.18,NNE,25,12.0,12.0,84,0.00,,,0.00,Wunderground v.1.15,2013-03-09 19:50:00,
2013-03-09 15:00:00,37.1,32.7,30.19,ENE,71,13.0,13.0,84,0.00,,,0.00,Wunderground v.1.15,2013-03-09 20:00:00,
2013-03-09 15:10:00,37.0,32.3,30.19,NNE,29,14.0,14.0,83,0.00,,,0.00,Wunderground v.1.15,2013-03-09 20:10:00,
2013-03-09 15:20:00,37.2,32.8,30.19,NNW,345,9.0,9.0,84,0.00,,,0.00,Wunderground v.1.15,2013-03-09 20:20:00,
2013-03-09 15:30:00,37.0,32.6,30.19,NW,312,12.0,12.0,84,0.00,,,0.00,Wunderground v.1.15,2013-03-09 20:30:00,
2013-03-09 15:40:00,36.8,32.1,30.19,NNE,15,14.0,14.0,83,0.00,,,0.00,Wunderground v.1.15,2013-03-09 20:40:00,
2013-03-09 15:50:00,36.8,32.4,30.20,NNE,22,11.0,37.0,84,0.00,,,0.00,Wunderground v.1.15,2013-03-09 20:50:00,
2013-03-09 16:00:00,36.7,32.6,30.20,NW,324,12.0,12.0,85,0.00,,,0.00,Wunderground v.1.15,2013-03-09 21:00:00,
2013-03-09 16:10:00,36.7,32.3,30.20,NNE,29,11.0,11.0,84,0.00,,,0.00,Wunderground v.1.15,2013-03-09 21:10:00,
2013-03-09 16:20:00,36.5,32.1,30.20,West,270,11.0,37.0,84,0.00,,,0.00,Wunderground v.1.15,2013-03-09 21:20:00,
2013-03-09 16:30:00,36.7,32.9,30.20,North,9,10.0,10.0,86,0.00,,,0.00,Wunderground v.1.15,2013-03-09 21:30:00,
2013-03-09 16:40:00,36.6,32.5,30.21,North,11,8.0,8.0,85,0.00,,,0.00,Wunderground v.1.15,2013-03-09 21:40:00,
2013-03-09 16:50:00,36.5,32.7,30.21,NNE,15,10.0,10.0,86,0.00,,,0.00,Wunderground v.1.15,2013-03-09 21:50:00,
2013-03-09 17:00:00,36.4,32.6,30.21,NE,52,11.0,11.0,86,0.00,,,0.00,Wunderground v.1.15,2013-03-09 22:00:00,
2013-03-09 17:10:00,36.4,32.3,30.21,North,11,11.0,11.0,85,0.00,,,0.00,Wunderground v.1.15,2013-03-09 22:10:00,
2013-03-09 17:20:00,36.3,32.5,30.22,NW,325,10.0,37.0,86,0.00,,,0.00,Wunderground v.1.15,2013-03-09 22:20:00,
2013-03-09 17:30:00,36.3,32.5,30.22,NNE,23,12.0,12.0,86,0.00,,,0.00,Wunderground v.1.15,2013-03-09 22:30:00,
2013-03-09 17:40:00,36.2,32.4,30.23,NNE,13,10.0,37.0,86,0.00,,,0.00,Wunderground v.1.15,2013-03-09 22:40:00,
2013-03-09 17:50:00,36.1,32.3,30.23,NE,43,11.0,37.0,86,0.00,,,0.00,Wunderground v.1.15,2013-03-09 22:50:00,
2013-03-09 18:00:00,36.2,32.1,30.24,North,7,10.0,10.0,85,0.00,,,0.00,Wunderground v.1.15,2013-03-09 23:00:00,
2013-03-09 18:10:00,36.3,32.5,30.24,North,11,10.0,37.0,86,0.00,,,0.00,Wunderground v.1.15,2013-03-09 23:10:00,
2013-03-09 18:20:00,36.2,32.1,30.24,NNE,21,12.0,12.0,85,0.00,,,0.00,Wunderground v.1.15,2013-03-09 23:20:00,
2013-03-09 18:30:00,36.1,32.3,30.25,NNW,330,10.0,10.0,86,0.00,,,0.00,Wunderground v.1.15,2013-03-09 23:30:00,
2013-03-09 18:40:00,36.2,32.4,30.25,NE,37,10.0,37.0,86,0.00,,,0.00,Wunderground v.1.15,2013-03-09 23:40:00,
2013-03-09 18:50:00,36.0,32.2,30.25,NE,53,10.0,10.0,86,0.00,,,0.00,Wunderground v.1.15,2013-03-09 23:50:00,
2013-03-09 19:00:00,36.0,32.5,30.25,NE,36,10.0,10.0,87,0.00,,,0.00,Wunderground v.1.15,2013-03-10 00:00:00,
2013-03-09 19:10:00,36.0,32.2,30.26,NNE,23,11.0,37.0,86,0.00,,,0.00,Wunderground v.1.15,2013-03-10 00:10:00,
2013-03-09 19:20:00,35.9,32.1,30.26,NE,36,10.0,37.0,86,0.00,,,0.00,Wunderground v.1.15,2013-03-10 00:20:00,
2013-03-09 19:30:00,36.0,32.5,30.26,North,352,10.0,10.0,87,0.00,,,0.00,Wunderground v.1.15,2013-03-10 00:30:00,
2013-03-09 19:40:00,36.1,32.6,30.26,NNE,23,10.0,10.0,87,0.00,,,0.00,Wunderground v.1.15,2013-03-10 00:40:00,
2013-03-09 19:50:00,36.1,32.3,30.26,East,99,9.0,9.0,86,0.00,,,0.00,Wunderground v.1.15,2013-03-10 00:50:00,
2013-03-09 20:00:00,36.2,33.0,30.26,North,9,9.0,37.0,88,0.00,,,0.00,Wunderground v.1.15,2013-03-10 01:00:00,
2013-03-09 20:10:00,36.3,32.8,30.26,North,6,10.0,10.0,87,0.00,,,0.00,Wunderground v.1.15,2013-03-10 01:10:00,
2013-03-09 20:20:00,36.4,33.2,30.26,NNE,24,10.0,37.0,88,0.00,,,0.00,Wunderground v.1.15,2013-03-10 01:20:00,
2013-03-09 20:30:00,36.4,32.9,30.26,NE,43,10.0,37.0,87,0.00,,,0.00,Wunderground v.1.15,2013-03-10 01:30:00,
2013-03-09 20:40:00,36.6,33.1,30.25,NE,39,11.0,37.0,87,0.00,,,0.00,Wunderground v.1.15,2013-03-10 01:40:00,
2013-03-09 20:50:00,36.7,33.2,30.26,NNE,33,12.0,37.0,87,0.00,,,0.00,Wunderground v.1.15,2013-03-10 01:50:00,
2013-03-09 21:00:00,36.9,33.4,30.26,NNE,25,11.0,11.0,87,0.00,,,0.00,Wunderground v.1.15,2013-03-10 02:00:00,
2013-03-09 21:10:00,37.0,33.5,30.26,NE,43,10.0,10.0,87,0.00,,,0.00,Wunderground v.1.15,2013-03-10 02:10:00,
2013-03-09 21:20:00,37.0,33.2,30.26,ENE,61,10.0,37.0,86,0.00,,,0.00,Wunderground v.1.15,2013-03-10 02:20:00,
2013-03-09 21:30:00,37.0,33.2,30.26,NNE,15,9.0,9.0,86,0.00,,,0.00,Wunderground v.1.15,2013-03-10 02:30:00,
2013-03-09 21:40:00,37.2,33.1,30.26,NNE,33,9.0,37.0,85,0.00,,,0.00,Wunderground v.1.15,2013-03-10 02:40:00,
2013-03-09 21:50:00,37.2,33.1,30.26,NNE,15,11.0,11.0,85,0.00,,,0.00,Wunderground v.1.15,2013-03-10 02:50:00,
2013-03-09 22:01:00,37.3,33.5,30.26,NNE,16,9.0,37.0,86,0.00,,,0.00,Wunderground v.1.15,2013-03-10 03:01:00,
2013-03-09 22:10:00,37.2,33.1,30.26,NNW,346,10.0,10.0,85,0.00,,,0.00,Wunderground v.1.15,2013-03-10 03:10:00,
2013-03-09 22:20:00,37.3,33.2,30.27,NW,324,11.0,11.0,85,0.00,,,0.00,Wunderground v.1.15,2013-03-10 03:20:00,
2013-03-09 22:30:00,37.4,33.3,30.27,ENE,61,9.0,37.0,85,0.00,,,0.00,Wunderground v.1.15,2013-03-10 03:30:00,
2013-03-09 22:40:00,37.5,33.4,30.27,NE,47,10.0,37.0,85,0.00,,,0.00,Wunderground v.1.15,2013-03-10 03:40:00,
2013-03-09 22:50:00,37.5,33.4,30.27,North,9,10.0,10.0,85,0.00,,,0.00,Wunderground v.1.15,2013-03-10 03:50:00,
2013-03-09 23:00:00,37.5,33.1,30.27,NE,41,9.0,9.0,84,0.00,,,0.00,Wunderground v.1.15,2013-03-10 04:00:00,
2013-03-09 23:10:00,37.4,33.0,30.27,NNE,20,9.0,9.0,84,0.00,,,0.00,Wunderground v.1.15,2013-03-10 04:10:00,
2013-03-09 23:20:00,37.5,33.4,30.27,North,9,9.0,37.0,85,0.00,,,0.00,Wunderground v.1.15,2013-03-10 04:20:00,
2013-03-09 23:30:00,37.5,33.1,30.27,NNE,15,8.0,8.0,84,0.00,,,0.00,Wunderground v.1.15,2013-03-10 04:30:00,
2013-03-09 23:40:00,37.6,33.2,30.27,NNE,13,10.0,10.0,84,0.00,,,0.00,Wunderground v.1.15,2013-03-10 04:40:00,
2013-03-09 23:50:00,37.7,33.6,30.26,NNW,347,9.0,9.0,85,0.00,,,0.00,Wunderground v.1.15,2013-03-10 04:50:00,